Location: Arlington
(31.4185°N, 90.5568°W)
Time: 12:00:51
(UTC+00:00)

Nauka - Pass Details

Date: 03 October 2021
Orbit: 417 x 423 km, 51.6° (Epoch: 17 October)

Event Time Altitude Azimuth Distance (km) Brightness Sun altitude
Rises 01:18:38 0° 331° (NNW) 2,361 ? -20.7°
Reaches altitude 10° 01:21:21 10° 355° (N) 1,496 ? -21.2°
Enters shadow 01:21:59 13° 4° (N) 1,352 ? -21.4°
